Regional Weather Roundup
Issued by NWS Albany, NY

Home | Current Version | Previous Version | Text Only | Print | Product List | Glossary On
Versions: 1 2 3 4 5 6 7 8 9 10 11 12 13 14 15 16 17 18 19 20 21 22 23 24 25 26 27
000
ASUS41 KALY 211410
RWRALY

NEW YORK STATE HOURLY WEATHER ROUNDUP
NATIONAL WEATHER SERVICE ALBANY NY
900 AM EST WED FEB 21 2018

NOTE: "FAIR" INDICATES FEW OR NO CLOUDS BELOW 12,000 FEET WITH NO
SIGNIFICANT WEATHER AND/OR NO OBSTRUCTIONS TO VISIBILITY.

NYZ032-033-038>043-046>054-057>066-NYZ062>081-082-084-211500-
EAST


CITY           SKY/WX    TMP DP  RH WIND       PRES   REMARKS
ALBANY         CLOUDY    57  53  86 S13       30.19R
GLENS FALLS    FOG       52  52 100 S8        30.17R VSB 1/4
POUGHKEEPSIE   CLOUDY    56  53  90 CALM      30.26S FOG
NEWBURGH       CLOUDY    59  59 100 W12       30.27F
MONTGOMERY     CLOUDY    58  56  93 SW10      30.25S
WHITE PLAINS   PTSUNNY   55  54  96 S3        30.28F FOG
ISLIP          FOG       50  50 100 SW12      30.31F VSB 1/8
NEW YORK CITY  CLOUDY    61  57  87 SW9       30.29F
CENTRAL PARK   CLOUDY    63  58  83 VRB5      30.31F
$$

NYZ005>009-017-018-044>046-055-056-211500-
CENTRAL


CITY           SKY/WX    TMP DP  RH WIND       PRES   REMARKS
FULTON         FAIR      67  53  61 S12       30.06S
SYRACUSE       PTSUNNY   68  54  60 S18G28    30.06F
ROME           FAIR      63  53  70 SW7       30.11F
ELMIRA         FAIR      46  46 100 CALM      30.17S
BINGHAMTON     FAIR      57  51  80 S7        30.19F
MONTICELLO     LGT RAIN  50  49  96 CALM      30.28R VSB<1/4
$$

NYZ026>034-041>043-087-211500-
NORTH


CITY           SKY/WX    TMP DP  RH WIND       PRES   REMARKS
WATERTOWN      PTSUNNY   66  53  63 S17G28    30.01F
FORT DRUM      NOT AVBL
OGDENSBURG     CLOUDY    56  50  81 SW6       30.02S
MASSENA        PTSUNNY   58  53  84 SW9       30.00F
SARANAC LAKE   PTSUNNY   57  52  83 SW10      30.06S
PLATTSBURGH    FAIR      51  47  86 SE7       30.04R
$$

NYZ001>004-010>016-019>021-085-211500-
WEST


CITY           SKY/WX    TMP DP  RH WIND       PRES   REMARKS
NIAGARA FALLS  RAIN      44  39  82 N20       30.16R
BUFFALO        PTSUNNY   56  53  90 NW10      30.13R
DUNKIRK        CLOUDY    54  53  97 CALM      30.15S
JAMESTOWN        N/A    N/A N/A N/A MISG        N/A
WELLSVILLE     FAIR      66  52  60 SW10G23   30.17S
ROCHESTER      PTSUNNY   64  53  67 NW13G22   30.10R
PENN YAN       FAIR      64  50  60 S20G26    30.12S
$$

             KEY
       WCI = WIND CHILL INDEX
       VSB = VISIBILITY
       HX  = HEAT INDEX
$$




USA.gov is the U.S. government's official web portal to all federal, state and local government web resources and services.